Vorticity
9 9 9 9 9 9 9 9 10 11 11 11 10 10 9 9 7 7 6 6 6 6 5 5 6 6 8 9 8 8 7 9 11 12 12 13 13 13 12 11 11 11 11 11 10 10 9 10 12 15 18 20 22 22 23 23 21 17 13 9 5 -4 -10 -9 1 5 6 5 24
10 9 9 9 9 8 8 8 8 9 9 9 9 8 8 8 7 7 7 7 7 6 6 6 6 6 7 6 5 6 8 10 10 9 8 10 12 12 11 10 9 9 8 8 8 9 9 10 11 11 11 11 10 11 13 16 17 18 17 15 12 6 -2 -10 -6 0 7 9 31
9 9 9 9 9 8 8 8 8 8 8 8 8 8 7 7 7 6 6 6 6 6 6 5 4 4 3 3 4 5 5 4 2 0 0 2 3 4 5 5 6 6 6 5 6 6 7 9 10 10 9 7 7 8 10 12 15 17 17 17 16 14 11 6 5 7 7 0 -5
9 9 9 9 9 9 8 8 7 7 7 7 7 7 6 6 6 5 5 4 5 5 5 4 3 2 2 2 1 1 2 1 1 1 0 -1 -3 -3 -1 2 4 5 4 3 2 3 3 4 6 7 8 8 8 8 9 10 12 14 15 15 15 14 14 13 13 13 9 -3 -20
9 9 9 8 8 8 8 7 7 6 6 5 5 5 4 4 4 4 4 4 4 4 3 2 2 2 2 3 3 4 4 5 6 6 6 6 5 5 6 7 7 7 5 4 2 2 1 1 2 4 6 7 8 8 7 6 7 8 10 11 12 12 12 12 13 14 14 11 7
8 8 8 8 8 8 8 8 7 6 5 5 4 4 3 3 3 3 3 3 3 3 3 3 3 3 3 4 5 5 5 6 6 6 5 6 6 7 9 11 10 9 9 8 7 5 4 3 3 5 7 9 10 10 7 4 3 3 4 6 8 9 10 10 11 11 13 16 18
9 9 9 9 9 9 9 8 8 7 7 6 6 5 4 4 4 4 4 3 3 3 4 4 4 4 5 6 6 7 7 7 7 6 5 4 5 7 9 9 9 9 10 10 11 10 10 10 10 10 11 11 10 10 9 10 9 8 6 5 5 5 6 8 10 12 13 15 16
12 11 10 10 10 10 10 9 9 9 8 8 8 7 6 6 5 5 4 4 4 4 4 5 5 5 6 6 6 6 6 6 6 6 6 6 6 7 7 7 7 8 9 10 12 13 15 16 16 15 12 8 6 6 6 8 10 10 10 8 7 6 6 7 9 10 12 13 13
14 13 12 11 11 11 10 10 10 10 10 10 9 9 8 8 8 7 7 7 7 7 6 7 7 6 6 6 5 5 5 5 4 4 5 5 4 4 4 5 6 7 8 9 10 12 14 16 15 14 11 8 7 7 7 8 9 10 10 9 8 7 6 5 4 5 7 10 11
15 14 13 13 12 12 11 11 11 10 10 10 10 10 10 10 11 10 10 10 10 9 9 9 8 8 8 7 7 7 7 7 6 6 5 5 5 5 5 5 6 7 7 8 9 9 10 11 12 12 12 12 13 13 12 10 10 9 8 7 5 4 2 0 -2 -2 1 6 10
14 14 13 13 12 12 11 11 11 10 10 10 10 10 11 11 12 12 12 11 11 11 10 10 10 10 9 9 9 9 8 8 8 7 7 7 7 7 7 7 7 7 7 7 8 8 8 8 9 9 9 8 5 3 1 0 0 -1 -4 -6 -5 -4 -2 -0 -1 -3 -2 3 10
14 14 13 13 12 12 11 11 10 10 9 9 10 10 11 12 12 12 11 11 10 10 10 10 10 10 10 9 9 9 8 8 7 7 7 7 7 7 7 7 7 7 7 7 7 8 7 7 6 3 1 -2 -1 3 11 22 22 16 8 4 2 2 3 7 5 1 -2 2 10
14 14 14 14 13 13 12 11 11 10 10 11 11 12 12 12 12 12 11 10 10 10 10 10 9 9 9 9 8 8 8 7 7 7 7 7 6 6 6 6 6 7 7 6 6 6 6 5 3 1 -1 -1 1 5 9 14 21 27 32 33 30 27 22 16 9 3 -1 1 8
13 14 14 14 14 14 13 12 12 12 12 12 13 13 13 13 13 12 12 11 10 10 10 10 9 9 9 9 8 8 8 7 7 7 7 7 6 6 6 6 6 5 5 4 4 4 3 3 3 2 2 2 3 4 4 4 6 9 14 22 30 35 34 26 13 4 -0 1 8
11 11 12 12 12 13 13 12 12 12 12 13 13 13 13 13 13 12 12 11 11 11 11 10 10 10 10 10 10 9 9 9 9 9 9 8 8 8 8 7 6 6 5 4 4 4 4 4 4 4 5 5 6 7 9 11 12 12 12 13 19 26 31 28 15 6 1 3 8
8 9 9 9 10 10 10 10 9 10 10 10 11 11 11 11 10 10 10 10 10 11 11 11 11 11 11 12 12 12 12 12 13 13 13 12 12 12 12 12 11 11 10 9 8 8 8 7 7 7 8 8 10 12 15 17 17 15 14 13 16 21 26 27 16 8 4 6 8
7 7 7 7 7 8 8 7 7 8 8 8 8 8 8 8 8 9 10 10 10 10 11 12 11 11 11 12 13 14 15 15 16 16 16 17 17 17 18 18 18 18 17 16 15 14 14 13 13 13 13 14 16 18 19 19 17 16 15 16 19 23 27 29 22 17 13 12 8
8 8 8 8 8 8 8 7 7 8 8 7 7 7 7 7 8 9 9 10 10 10 10 10 11 11 12 13 14 15 16 16 16 17 18 18 19 19 20 20 21 21 21 21 20 20 19 19 19 19 20 21 22 21 20 18 17 18 21 25 29 33 36 37 32 27 22 17 10
9 9 9 9 9 9 9 8 8 8 8 7 7 7 7 8 8 9 9 9 10 10 10 10 11 12 14 14 15 16 16 16 16 16 17 17 17 18 18 19 19 19 20 20 20 21 21 21 22 22 23 23 22 20 17 16 18 23 30 37 41 42 39 32 25 20 17 13 9
10 10 10 10 9 9 9 8 8 8 8 8 8 8 8 9 9 9 9 9 9 10 11 12 13 14 15 16 16 15 15 15 15 15 15 16 16 17 17 17 17 17 17 17 18 18 19 19 20 20 19 19 16 14 12 13 19 27 35 43 43 37 27 15 10 9 9 9 7
9 9 9 8 8 8 8 8 8 8 8 8 8 8 8 8 8 8 9 9 9 11 13 14 15 16 16 16 15 15 14 14 15 15 15 16 16 16 17 17 17 17 17 16 16 16 16 16 15 15 14 12 11 9 9 11 16 23 29 32 30 25 18 12 9 7 6 7 7
7 7 7 7 7 7 7 7 8 8 8 8 8 8 8 8 8 8 9 9 11 13 15 16 17 16 16 15 15 14 14 14 15 15 16 16 17 17 18 18 19 18 18 17 17 16 15 14 14 13 12 11 10 9 9 10 13 15 16 14 11 9 8 9 8 6 5 6 8
7 7 7 8 8 8 8 8 8 8 9 9 9 9 9 9 9 9 9 11 13 15 17 17 17 16 15 14 14 14 14 15 15 16 16 17 17 18 18 19 20 20 20 19 19 18 17 16 15 14 14 13 12 11 11 11 12 12 11 7 6 8 10 12 9 6 5 7 10
10 11 11 11 11 12 12 12 12 12 12 12 12 11 11 10 10 11 12 14 16 18 18 17 16 15 14 14 14 15 15 15 15 16 16 16 17 18 18 19 20 20 20 20 20 19 19 19 18 17 16 16 15 15 14 13 13 13 11 9 11 13 14 10 7 5 6 8 10
14 15 15 16 17 17 17 18 18 17 17 16 16 15 14 14 13 14 16 18 19 18 17 16 15 14 14 15 15 15 15 15 15 15 15 15 16 17 18 18 19 19 19 18 18 18 19 19 19 19 19 19 19 18 16 14 12 11 10 10 8 4 1 -2 -1 1 3 6 9
16 17 18 20 21 22 23 23 23 22 21 20 19 18 18 17 18 18 19 20 18 17 15 14 14 14 15 15 14 14 14 14 14 13 13 14 14 15 16 16 16 15 15 15 15 15 16 16 17 17 19 21 22 20 15 10 8 7 6 8 8 6 3 -0 0 2 5 9 11
17 19 22 24 26 27 27 26 26 25 24 23 22 22 21 21 21 20 19 18 16 14 13 13 14 14 14 14 13 13 13 13 13 13 13 13 13 13 13 13 12 12 11 11 12 12 13 13 13 14 15 17 20 20 17 12 9 8 8 8 8 9 10 11 12 13 14 15 13
20 22 24 26 28 29 28 28 28 27 26 25 24 23 22 21 20 18 16 14 13 13 13 14 14 14 13 13 13 12 12 11 12 12 12 13 13 12 11 10 10 9 9 8 8 9 9 10 11 11 12 13 15 17 18 18 17 17 17 16 16 17 18 19 19 19 17 14 12
20 21 22 23 25 25 26 27 27 26 25 24 23 21 20 18 16 14 13 12 12 13 13 14 13 12 12 12 11 11 11 11 11 12 13 14 14 14 13 12 11 10 8 6 6 6 7 8 9 10 11 12 12 13 14 16 17 18 19 20 20 20 19 18 16 14 12 10 10
19 18 18 19 19 21 22 23 23 23 22 21 20 18 16 14 13 12 12 12 14 15 15 14 12 12 11 11 10 10 10 10 11 12 13 14 15 14 14 12 11 9 8 6 6 6 6 7 7 8 9 10 10 10 10 10 11 11 11 12 12 12 12 11 11 11 11 12 13
18 18 17 17 18 19 20 21 21 20 19 18 16 14 13 12 12 12 13 14 15 14 14 12 11 10 10 9 9 9 9 9 10 10 11 11 12 12 11 11 9 8 8 7 7 7 6 6 6 7 7 8 8 8 8 8 8 8 9 9 10 11 12 13 14 16 17 20 23
19 19 18 18 19 19 19 19 19 18 16 15 13 12 11 11 11 12 12 13 13 12 11 10 9 8 7 7 8 8 8 8 8 7 7 7 8 9 9 9 9 8 8 8 8 8 8 7 7 8 8 9 10 10 11 11 12 13 14 15 17 18 20 22 23 25 27 30 32
20 20 20 20 19 19 18 18 17 15 14 12 11 10 10 10 10 10 10 10 10 10 9 8 7 7 7 7 7 8 8 8 7 7 7 7 8 8 9 9 9 10 10 11 11 12 12 13 14 15 16 17 18 19 20 20 21 22 23 25 26 27 28 29 30 30 30 30 28
22 22 22 21 19 18 17 16 14 13 11 10 9 9 8 8 7 7 8 8 9 9 10 10 10 11 11 12 12 12 12 12 12 12 12 12 12 12 12 13 13 14 15 16 17 18 20 21 23 24 25 26 27 27 28 28 29 29 29 29 28 27 27 26 24 22 20 17 14
23 23 23 22 20 18 16 15 13 11 10 8 7 7 6 6 7 8 10 12 14 16 17 19 19 20 21 21 22 21 21 20 20 20 20 20 20 19 19 19 21 22 23 24 25 26 27 27 28 29 29 29 29 28 27 27 26 24 23 21 19 17 15 13 11 9 7 5 4
22 23 24 23 22 20 18 16 14 12 11 9 8 8 9 11 14 18 21 24 26 28 28 29 29 29 30 30 29 29 28 28 27 27 26 25 24 24 25 26 26 27 27 28 27 27 26 26 25 24 23 21 19 18 16 15 13 12 10 9 8 6 5 5 4 3 3 2 2
19 21 23 23 23 23 22 21 19 18 17 16 17 19 22 25 28 31 33 34 33 32 31 30 30 30 29 29 28 28 27 26 26 25 24 23 24 24 25 25 24 24 22 21 20 18 17 15 14 12 10 9 7 6 5 5 4 4 3 3 3 3 3 3 3 3 3 3 4
17 18 20 22 23 24 25 25 26 26 27 28 30 32 34 35 34 33 31 28 26 24 23 22 22 21 20 20 19 19 19 18 18 18 18 17 17 17 16 15 13 12 11 9 8 7 6 5 5 4 4 4 3 3 4 4 4 4 4 4 4 4 4 4 4 5 5 5 5
14 15 17 18 21 23 25 26 28 30 31 32 32 31 29 26 22 19 17 15 14 13 12 12 12 11 11 11 11 11 11 11 11 10 10 9 8 8 7 6 5 4 4 4 3 3 3 4 4 4 4 4 5 5 5 6 6 5 5 5 5 5 5 5 6 6 6 6 6
12 12 13 14 16 17 19 20 21 21 21 20 18 15 13 11 9 8 8 8 8 7 7 7 7 7 7 7 7 7 6 6 6 6 5 5 4 4 4 4 4 4 4 4 5 5 5 5 5 6 6 6 6 6 6 6 6 6 6 6 6 6 6 6 7 7 7 7 7
10 10 10 10 10 11 11 11 10 10 9 8 8 7 6 6 6 6 6 6 6 6 6 6 6 6 6 6 5 5 5 5 5 5 5 5 5 5 5 5 6 6 6 6 6 6 6 6 6 5 5 5 5 5 5 6 6 6 6 7 7 8 8 9 9 9 10 10 10
Height
3098 3098 3099 3099 3099 3100 3100 3100 3101 3101 3101 3101 3102 3102 3102 3102 3102 3102 3101 3101 3100 3100 3100 3099 3099 3099 3099 3099 3099 3098 3098 3098 3098 3099 3099 3099 3099 3098 3098 3098 3097 3097 3097 3096 3095 3095 3094 3093 3092 3092 3092 3091 3091 3091 3091 3091 3091 3090 3089 3087 3085 3084 3083 3082 3082 3082 3083 3084 3083
3096 3096 3097 3097 3097 3097 3098 3098 3098 3098 3099 3099 3099 3100 3100 3100 3100 3100 3100 3099 3099 3098 3098 3098 3097 3097 3096 3096 3096 3095 3095 3096 3096 3096 3097 3097 3097 3097 3097 3096 3096 3095 3095 3094 3093 3092 3092 3091 3090 3090 3090 3090 3089 3089 3088 3088 3087 3087 3087 3085 3084 3083 3082 3080 3079 3080 3081 3081 3080
3094 3094 3094 3095 3095 3095 3096 3096 3096 3096 3097 3097 3097 3098 3098 3098 3097 3097 3097 3097 3097 3097 3097 3097 3095 3094 3094 3093 3093 3092 3093 3093 3094 3094 3094 3095 3095 3095 3095 3095 3094 3093 3092 3092 3091 3090 3090 3089 3088 3088 3088 3087 3087 3087 3086 3086 3085 3085 3084 3083 3082 3082 3081 3079 3079 3079 3079 3079 3077
3092 3092 3092 3092 3093 3093 3093 3094 3094 3095 3095 3095 3096 3096 3096 3095 3095 3095 3095 3095 3096 3096 3096 3095 3093 3092 3091 3091 3091 3090 3090 3091 3091 3091 3091 3092 3092 3093 3093 3093 3092 3092 3091 3090 3089 3088 3087 3087 3086 3086 3085 3085 3084 3084 3083 3083 3083 3082 3082 3081 3081 3080 3079 3078 3077 3077 3077 3077 3075
3089 3089 3090 3090 3091 3091 3092 3092 3092 3092 3093 3093 3094 3093 3093 3093 3092 3092 3092 3093 3093 3094 3093 3093 3092 3090 3090 3089 3089 3089 3089 3088 3088 3087 3087 3088 3089 3090 3090 3090 3090 3089 3089 3088 3087 3086 3085 3085 3084 3083 3082 3082 3082 3081 3080 3080 3080 3079 3079 3079 3078 3078 3077 3076 3075 3075 3074 3074 3073
3087 3087 3087 3088 3088 3089 3089 3090 3090 3090 3091 3091 3091 3091 3090 3090 3090 3090 3090 3091 3091 3091 3091 3091 3090 3089 3088 3088 3088 3088 3087 3087 3087 3086 3085 3085 3085 3086 3086 3087 3087 3087 3086 3086 3085 3084 3083 3082 3082 3081 3080 3080 3079 3078 3077 3077 3077 3076 3076 3076 3075 3075 3075 3074 3073 3072 3071 3071 3070
3084 3085 3085 3086 3086 3086 3087 3087 3087 3088 3088 3088 3088 3088 3088 3087 3088 3088 3088 3088 3089 3089 3089 3089 3088 3087 3086 3086 3086 3086 3086 3086 3085 3084 3084 3083 3082 3082 3082 3082 3083 3083 3083 3082 3082 3081 3081 3080 3080 3079 3078 3077 3077 3076 3075 3074 3074 3073 3073 3072 3072 3072 3072 3071 3070 3069 3069 3068 3067
3082 3082 3083 3083 3083 3084 3084 3085 3085 3085 3085 3085 3085 3085 3085 3085 3086 3086 3086 3087 3087 3087 3087 3086 3086 3085 3084 3083 3083 3083 3084 3084 3084 3083 3082 3082 3081 3080 3080 3079 3079 3079 3079 3079 3079 3078 3078 3078 3077 3077 3076 3075 3074 3073 3072 3072 3071 3070 3070 3069 3069 3069 3069 3068 3067 3067 3066 3066 3065
3080 3080 3081 3081 3081 3082 3082 3082 3082 3082 3082 3082 3082 3082 3082 3082 3083 3084 3084 3085 3085 3084 3084 3084 3083 3083 3082 3081 3081 3081 3081 3082 3082 3081 3081 3080 3080 3079 3078 3077 3077 3077 3077 3076 3076 3076 3076 3075 3075 3074 3073 3072 3072 3071 3070 3069 3068 3067 3067 3067 3066 3066 3066 3065 3065 3064 3064 3063 3063
3078 3078 3078 3079 3079 3079 3079 3080 3080 3080 3079 3079 3078 3078 3078 3080 3081 3082 3082 3082 3082 3082 3082 3082 3081 3081 3080 3079 3079 3078 3078 3078 3079 3078 3078 3078 3077 3077 3076 3076 3075 3075 3074 3074 3073 3073 3073 3072 3072 3072 3071 3071 3069 3068 3067 3066 3065 3065 3064 3064 3064 3063 3063 3063 3062 3062 3061 3061 3060
3076 3076 3076 3077 3077 3077 3077 3077 3077 3077 3076 3075 3075 3075 3076 3078 3079 3080 3080 3080 3080 3080 3079 3079 3078 3078 3077 3077 3077 3076 3076 3076 3076 3076 3076 3075 3075 3074 3074 3073 3073 3072 3072 3072 3071 3071 3070 3070 3069 3069 3069 3068 3067 3067 3065 3064 3063 3063 3062 3062 3062 3061 3061 3060 3060 3060 3059 3058 3058
3074 3074 3074 3074 3074 3074 3075 3074 3074 3073 3072 3072 3072 3073 3075 3076 3077 3077 3077 3077 3077 3077 3076 3076 3076 3075 3075 3075 3074 3074 3073 3073 3073 3073 3073 3072 3072 3072 3071 3071 3070 3070 3069 3069 3068 3068 3068 3067 3067 3066 3066 3065 3065 3064 3063 3062 3061 3060 3060 3060 3059 3058 3058 3058 3057 3057 3057 3056 3055
3072 3072 3072 3072 3072 3072 3072 3072 3071 3070 3070 3070 3071 3072 3073 3074 3074 3074 3074 3074 3074 3073 3073 3073 3073 3072 3072 3072 3072 3071 3071 3071 3070 3070 3070 3070 3069 3069 3068 3068 3067 3067 3067 3066 3066 3065 3065 3064 3064 3063 3063 3062 3062 3061 3060 3059 3058 3058 3057 3056 3056 3055 3055 3055 3055 3055 3054 3053 3053
3070 3070 3070 3070 3070 3070 3070 3069 3069 3068 3068 3069 3070 3071 3071 3072 3072 3072 3071 3071 3071 3070 3070 3070 3070 3070 3069 3069 3069 3068 3068 3067 3067 3067 3067 3067 3066 3066 3065 3065 3064 3064 3063 3063 3062 3062 3062 3061 3060 3060 3059 3059 3058 3058 3057 3056 3055 3054 3053 3052 3052 3051 3051 3051 3052 3052 3052 3051 3051
3067 3068 3068 3068 3068 3068 3068 3067 3067 3067 3067 3067 3068 3068 3069 3069 3069 3068 3068 3068 3067 3067 3067 3067 3067 3067 3067 3066 3066 3065 3065 3065 3064 3064 3064 3063 3063 3063 3062 3062 3062 3061 3060 3060 3059 3059 3058 3057 3057 3057 3056 3056 3055 3054 3054 3053 3052 3051 3050 3049 3049 3048 3048 3048 3049 3049 3049 3049 3049
3066 3066 3066 3066 3066 3066 3066 3065 3065 3065 3065 3065 3066 3066 3066 3066 3066 3065 3065 3065 3064 3064 3064 3064 3064 3064 3064 3063 3063 3063 3062 3062 3062 3061 3061 3060 3060 3060 3059 3059 3058 3058 3057 3057 3056 3056 3055 3054 3054 3053 3053 3052 3052 3051 3051 3050 3049 3048 3047 3047 3046 3046 3046 3046 3046 3047 3047 3047 3047
3063 3064 3064 3064 3064 3064 3064 3063 3063 3063 3063 3063 3063 3063 3063 3063 3063 3062 3062 3062 3062 3062 3062 3062 3062 3061 3061 3061 3061 3060 3060 3059 3059 3059 3058 3057 3057 3057 3056 3056 3055 3055 3054 3054 3053 3053 3052 3052 3051 3051 3051 3050 3049 3049 3048 3047 3046 3045 3044 3044 3043 3043 3043 3043 3043 3044 3044 3045 3045
3062 3062 3062 3062 3062 3062 3062 3061 3061 3061 3061 3061 3060 3060 3060 3060 3060 3060 3060 3060 3060 3060 3060 3060 3059 3059 3059 3059 3058 3058 3058 3057 3057 3056 3056 3055 3055 3054 3053 3053 3052 3052 3052 3051 3051 3050 3050 3049 3049 3049 3048 3048 3047 3047 3046 3045 3044 3042 3042 3041 3040 3040 3040 3040 3041 3042 3042 3043 3043
3059 3059 3059 3059 3059 3059 3059 3059 3058 3058 3058 3058 3058 3058 3058 3058 3058 3058 3058 3058 3058 3058 3058 3057 3057 3057 3057 3057 3056 3056 3055 3055 3054 3054 3053 3052 3052 3052 3051 3050 3050 3049 3049 3048 3048 3048 3048 3047 3047 3047 3047 3046 3045 3045 3044 3043 3042 3040 3039 3038 3037 3037 3037 3038 3039 3039 3040 3041 3041
3057 3057 3057 3057 3057 3057 3057 3056 3056 3056 3056 3056 3056 3056 3056 3056 3056 3056 3056 3056 3056 3056 3056 3056 3056 3055 3055 3055 3054 3054 3053 3052 3052 3051 3051 3050 3050 3049 3048 3048 3047 3047 3047 3046 3046 3046 3046 3045 3045 3045 3044 3044 3043 3042 3042 3041 3039 3038 3037 3036 3035 3036 3036 3037 3037 3038 3038 3038 3039
3055 3055 3055 3055 3054 3054 3054 3054 3054 3054 3053 3053 3054 3054 3054 3054 3054 3054 3054 3054 3054 3054 3054 3054 3053 3053 3053 3052 3052 3051 3051 3050 3049 3049 3048 3047 3047 3047 3046 3046 3045 3045 3044 3044 3044 3043 3043 3043 3043 3042 3042 3041 3041 3040 3039 3038 3037 3037 3035 3034 3034 3035 3035 3035 3036 3036 3036 3037 3037
3053 3053 3052 3052 3052 3052 3052 3051 3052 3052 3052 3052 3052 3052 3052 3052 3052 3052 3052 3052 3052 3052 3052 3052 3052 3051 3051 3050 3049 3049 3048 3047 3047 3046 3046 3045 3045 3044 3044 3043 3043 3042 3042 3042 3042 3041 3041 3040 3040 3040 3039 3039 3038 3038 3037 3037 3036 3035 3034 3033 3033 3033 3034 3034 3034 3034 3034 3034 3034
3051 3051 3050 3050 3049 3049 3049 3049 3049 3049 3049 3049 3049 3049 3049 3049 3049 3050 3050 3050 3050 3050 3050 3050 3049 3049 3048 3048 3047 3047 3046 3046 3045 3044 3044 3043 3042 3042 3042 3041 3041 3040 3040 3039 3039 3039 3038 3038 3037 3037 3037 3036 3036 3036 3035 3035 3034 3033 3033 3032 3032 3032 3032 3032 3032 3032 3032 3032 3032
3049 3048 3048 3047 3047 3047 3047 3047 3047 3047 3047 3047 3047 3047 3047 3047 3047 3047 3047 3048 3048 3048 3048 3047 3047 3047 3046 3046 3045 3045 3044 3043 3043 3042 3042 3041 3041 3040 3040 3039 3039 3038 3037 3037 3037 3036 3036 3036 3035 3035 3035 3034 3034 3033 3033 3032 3032 3032 3031 3031 3031 3030 3030 3030 3030 3030 3030 3029 3029
3047 3046 3046 3045 3045 3044 3044 3044 3044 3044 3044 3044 3044 3044 3045 3045 3045 3046 3046 3046 3046 3046 3046 3046 3045 3045 3044 3044 3043 3042 3042 3041 3041 3040 3040 3039 3039 3038 3038 3037 3037 3036 3036 3035 3035 3034 3034 3034 3033 3033 3033 3032 3032 3031 3031 3031 3030 3030 3030 3029 3029 3029 3029 3028 3028 3028 3027 3027 3027
3045 3044 3043 3043 3042 3042 3041 3041 3041 3041 3041 3041 3042 3042 3042 3043 3043 3044 3044 3044 3044 3044 3044 3044 3043 3043 3042 3042 3041 3041 3040 3039 3039 3038 3038 3037 3037 3037 3036 3036 3035 3034 3034 3034 3033 3033 3032 3032 3032 3031 3031 3030 3030 3030 3030 3030 3029 3028 3028 3028 3027 3027 3027 3027 3026 3026 3026 3025 3025
3043 3042 3041 3040 3039 3039 3038 3038 3038 3038 3039 3039 3040 3040 3041 3042 3042 3042 3042 3042 3042 3042 3042 3042 3042 3041 3041 3040 3039 3039 3038 3037 3037 3037 3036 3036 3035 3035 3035 3034 3034 3033 3032 3032 3032 3032 3031 3031 3030 3030 3029 3029 3028 3028 3028 3028 3027 3027 3027 3026 3026 3026 3025 3025 3024 3024 3024 3023 3023
3041 3040 3039 3038 3037 3037 3036 3036 3036 3037 3037 3037 3038 3039 3039 3040 3040 3041 3041 3041 3041 3041 3041 3041 3040 3040 3039 3038 3037 3037 3036 3036 3035 3035 3035 3034 3034 3033 3033 3032 3032 3032 3031 3031 3030 3030 3030 3029 3029 3028 3028 3027 3027 3027 3026 3026 3026 3025 3025 3024 3024 3024 3023 3023 3022 3022 3022 3021 3021
3039 3038 3037 3036 3035 3035 3035 3034 3035 3035 3036 3036 3037 3037 3038 3039 3039 3039 3040 3040 3040 3040 3039 3039 3038 3038 3037 3037 3036 3036 3035 3035 3034 3034 3033 3033 3032 3032 3031 3031 3030 3030 3029 3029 3029 3028 3028 3028 3028 3027 3027 3026 3026 3025 3025 3024 3024 3023 3023 3023 3022 3022 3021 3021 3021 3020 3020 3019 3019
3037 3036 3035 3035 3034 3034 3033 3033 3034 3034 3035 3035 3036 3037 3037 3038 3038 3039 3039 3039 3039 3039 3038 3038 3037 3037 3036 3035 3035 3034 3034 3033 3033 3033 3032 3032 3031 3031 3030 3030 3029 3029 3028 3028 3028 3027 3027 3027 3027 3026 3026 3025 3025 3024 3024 3023 3023 3022 3022 3021 3021 3020 3020 3019 3019 3018 3018 3017 3017
3036 3035 3034 3034 3033 3033 3033 3033 3033 3034 3034 3035 3036 3036 3037 3037 3038 3038 3038 3038 3038 3037 3037 3037 3036 3035 3035 3034 3034 3033 3033 3032 3032 3032 3031 3031 3030 3030 3029 3029 3028 3028 3027 3027 3027 3027 3026 3026 3025 3025 3024 3024 3023 3023 3022 3022 3021 3021 3020 3020 3019 3019 3018 3018 3017 3017 3017 3016 3016
3035 3035 3034 3034 3033 3033 3033 3033 3033 3034 3034 3035 3036 3036 3037 3037 3037 3037 3037 3037 3037 3037 3036 3035 3035 3034 3034 3033 3033 3032 3032 3032 3032 3031 3031 3030 3030 3029 3029 3028 3028 3027 3027 3027 3026 3026 3025 3024 3024 3023 3023 3022 3022 3021 3021 3020 3020 3019 3019 3018 3018 3017 3017 3017 3016 3016 3015 3015 3015
3035 3034 3034 3033 3033 3033 3033 3033 3034 3034 3035 3035 3036 3036 3037 3037 3037 3037 3037 3036 3036 3035 3035 3034 3033 3033 3033 3032 3032 3032 3032 3031 3031 3031 3030 3030 3029 3029 3028 3028 3027 3027 3026 3026 3025 3025 3024 3024 3023 3022 3022 3022 3021 3020 3020 3019 3018 3018 3017 3017 3017 3016 3016 3015 3015 3015 3014 3014 3014
3035 3034 3034 3033 3033 3033 3033 3034 3034 3034 3035 3035 3035 3036 3036 3036 3036 3036 3036 3035 3035 3034 3034 3033 3032 3032 3032 3032 3031 3031 3031 3031 3030 3030 3030 3029 3029 3028 3028 3027 3027 3026 3026 3025 3025 3024 3023 3023 3022 3022 3021 3021 3020 3019 3019 3018 3018 3017 3017 3017 3016 3016 3015 3015 3014 3014 3014 3013 3013
3035 3034 3034 3033 3033 3033 3033 3034 3034 3034 3035 3035 3035 3035 3036 3035 3035 3035 3035 3034 3034 3033 3033 3032 3032 3031 3031 3031 3030 3030 3030 3030 3030 3029 3029 3029 3028 3028 3027 3027 3026 3026 3025 3024 3024 3023 3022 3022 3022 3021 3021 3020 3019 3019 3018 3018 3018 3017 3017 3017 3016 3016 3015 3015 3015 3014 3014 3013 3013
3035 3034 3034 3033 3033 3033 3033 3034 3034 3034 3034 3035 3035 3035 3035 3035 3035 3034 3034 3033 3033 3032 3032 3031 3031 3031 3030 3030 3030 3030 3029 3029 3029 3029 3029 3028 3028 3027 3027 3026 3026 3025 3024 3024 3023 3023 3022 3022 3022 3021 3021 3020 3020 3019 3019 3018 3018 3018 3017 3017 3017 3016 3016 3015 3015 3014 3014 3013 3012
3036 3035 3034 3034 3033 3033 3033 3033 3034 3034 3034 3034 3034 3035 3035 3034 3034 3034 3033 3033 3032 3032 3031 3031 3031 3030 3030 3030 3030 3029 3029 3029 3029 3028 3028 3028 3027 3027 3026 3026 3026 3025 3024 3024 3024 3023 3023 3022 3022 3022 3021 3021 3020 3020 3020 3019 3019 3018 3018 3017 3017 3017 3016 3015 3015 3014 3013 3012 3012
3036 3036 3035 3034 3034 3034 3033 3033 3034 3034 3034 3034 3034 3034 3034 3034 3034 3033 3033 3032 3032 3032 3031 3031 3031 3030 3030 3030 3030 3030 3029 3029 3029 3028 3028 3028 3027 3027 3027 3026 3026 3026 3025 3025 3024 3024 3023 3023 3023 3022 3022 3022 3021 3021 3020 3020 3019 3018 3018 3017 3017 3016 3015 3015 3014 3013 3012 3012 3011
3037 3036 3036 3035 3035 3034 3034 3034 3034 3034 3034 3034 3035 3035 3034 3034 3034 3033 3033 3032 3032 3032 3031 3031 3031 3031 3031 3030 3030 3030 3030 3029 3029 3029 3029 3028 3028 3028 3027 3027 3027 3026 3026 3025 3025 3025 3024 3024 3023 3023 3022 3022 3021 3021 3020 3019 3019 3018 3017 3017 3016 3015 3014 3014 3013 3012 3011 3010 3009
3038 3037 3037 3036 3035 3035 3035 3035 3035 3035 3035 3035 3035 3035 3035 3034 3034 3033 3033 3033 3032 3032 3032 3031 3031 3031 3031 3031 3031 3030 3030 3030 3030 3030 3029 3029 3029 3028 3028 3027 3027 3027 3026 3026 3025 3025 3024 3024 3023 3023 3022 3022 3021 3020 3020 3019 3018 3017 3017 3016 3015 3014 3013 3012 3012 3011 3010 3009 3008
3038 3038 3037 3037 3036 3036 3036 3036 3036 3036 3036 3036 3035 3035 3035 3034 3034 3034 3033 3033 3032 3032 3032 3032 3032 3032 3032 3032 3031 3031 3031 3031 3030 3030 3030 3030 3029 3029 3028 3028 3027 3027 3027 3026 3025 3025 3024 3024 3023 3022 3022 3021 3020 3019 3019 3018 3017 3016 3016 3015 3014 3013 3012 3011 3010 3009 3008 3007 3006